QPF
0.04 0.05 0.04 0.02 0.01 0.01 0.01 0.01 0.00 0.00 0.00 0.00 0.00 0.00 0.00 0.00 0.00 0.00 0.00 0.00 0.00 0.00 0.00 0.00 0.00 0.00 0.00 0.00 0.00 0.00 0.00 0.00 0.00 0.00 0.00 0.00 0.00 0.00 0.00 0.00 0.01 0.01 0.02 0.01
0.04 0.02 0.02 0.01 0.01 0.01 0.01 0.01 0.00 0.00 0.00 0.00 0.01 0.00 0.00 0.00 0.00 0.00 0.00 0.00 0.00 0.00 0.00 0.00 0.00 0.00 0.00 0.00 0.00 0.00 0.00 0.00 0.00 0.00 0.00 0.00 0.00 0.00 0.00 0.00 0.01 0.01 0.02 0.01
0.04 0.02 0.00 0.01 0.01 0.01 0.01 0.00 0.00 0.00 0.00 0.00 0.01 0.01 0.00 0.00 0.00 0.00 0.00 0.00 0.00 0.00 0.00 0.00 0.00 0.00 0.00 0.00 0.00 0.00 0.00 0.00 0.00 0.00 0.00 0.00 0.00 0.00 0.00 0.01 0.01 0.01 0.01 0.01
0.02 0.01 0.01 0.01 0.01 0.01 0.01 0.00 0.00 0.00 0.00 0.01 0.01 0.01 0.00 0.00 0.00 0.00 0.00 0.00 0.00 0.00 0.00 0.00 0.00 0.00 0.00 0.00 0.00 0.00 0.00 0.00 0.00 0.00 0.00 0.00 0.00 0.00 0.00 0.01 0.01 0.01 0.01 0.01
0.03 0.01 0.01 0.01 0.01 0.01 0.01 0.00 0.00 0.00 0.01 0.02 0.01 0.01 0.00 0.00 0.00 0.00 0.00 0.00 0.00 0.00 0.00 0.00 0.00 0.00 0.00 0.00 0.00 0.00 0.00 0.00 0.00 0.00 0.00 0.00 0.00 0.00 0.00 0.01 0.01 0.01 0.02 0.02
0.02 0.02 0.02 0.01 0.00 0.00 0.01 0.01 0.01 0.02 0.03 0.03 0.01 0.01 0.00 0.00 0.00 0.00 0.00 0.00 0.00 0.00 0.00 0.00 0.00 0.00 0.00 0.00 0.00 0.00 0.00 0.00 0.00 0.00 0.00 0.00 0.00 0.00 0.01 0.01 0.01 0.01 0.02 0.02
0.03 0.03 0.04 0.02 0.01 0.01 0.02 0.03 0.04 0.04 0.04 0.02 0.00 0.00 0.00 0.00 0.00 0.00 0.00 0.00 0.00 0.00 0.00 0.00 0.00 0.00 0.00 0.00 0.00 0.00 0.00 0.00 0.00 0.00 0.00 0.00 0.00 0.01 0.01 0.01 0.02 0.03 0.02 0.02
0.03 0.02 0.02 0.03 0.03 0.02 0.01 0.02 0.02 0.02 0.01 0.00 0.00 0.00 0.00 0.00 0.00 0.00 0.00 0.00 0.00 0.00 0.00 0.00 0.00 0.00 0.00 0.00 0.00 0.00 0.00 0.00 0.00 0.00 0.00 0.00 0.00 0.01 0.01 0.02 0.02 0.02 0.03 0.02
0.04 0.02 0.01 0.01 0.01 0.02 0.02 0.01 0.01 0.02 0.02 0.01 0.00 0.00 0.00 0.00 0.00 0.00 0.00 0.00 0.00 0.00 0.00 0.00 0.00 0.00 0.00 0.00 0.00 0.00 0.00 0.00 0.00 0.00 0.00 0.00 0.00 0.01 0.01 0.02 0.02 0.01 0.01 0.01
0.06 0.05 0.02 0.01 0.02 0.03 0.03 0.02 0.02 0.03 0.03 0.01 0.00 0.00 0.00 0.00 0.00 0.00 0.00 0.00 0.00 0.00 0.00 0.00 0.00 0.00 0.00 0.00 0.00 0.00 0.00 0.00 0.00 0.00 0.00 0.00 0.00 0.00 0.01 0.01 0.02 0.01 0.01 0.01
0.08 0.07 0.06 0.05 0.04 0.03 0.03 0.03 0.03 0.03 0.02 0.01 0.01 0.00 0.00 0.00 0.00 0.00 0.00 0.00 0.00 0.00 0.00 0.00 0.00 0.00 0.00 0.00 0.00 0.00 0.00 0.00 0.00 0.00 0.00 0.00 0.00 0.00 0.01 0.01 0.02 0.02 0.02 0.02
0.08 0.08 0.07 0.07 0.04 0.02 0.01 0.02 0.02 0.03 0.02 0.01 0.01 0.00 0.00 0.00 0.00 0.00 0.00 0.00 0.00 0.00 0.00 0.00 0.00 0.00 0.00 0.00 0.00 0.00 0.00 0.00 0.00 0.00 0.00 0.00 0.00 0.00 0.01 0.00 0.01 0.02 0.03 0.03
0.08 0.10 0.09 0.08 0.08 0.07 0.05 0.02 0.01 0.01 0.02 0.01 0.01 0.00 0.00 0.00 0.00 0.00 0.00 0.01 0.00 0.00 0.00 0.00 0.00 0.00 0.00 0.00 0.00 0.00 0.00 0.00 0.00 0.00 0.00 0.00 0.00 0.01 0.01 0.01 0.01 0.01 0.02 0.03
0.09 0.09 0.06 0.05 0.05 0.07 0.07 0.04 0.02 0.02 0.02 0.01 0.00 0.00 0.00 0.00 0.00 0.00 0.01 0.01 0.00 0.00 0.00 0.00 0.00 0.00 0.00 0.00 0.00 0.00 0.00 0.00 0.00 0.00 0.00 0.00 0.01 0.01 0.01 0.01 0.01 0.01 0.01 0.02
0.11 0.10 0.04 0.02 0.02 0.03 0.03 0.03 0.03 0.03 0.03 0.01 0.00 0.00 0.00 0.00 0.00 0.00 0.01 0.02 0.01 0.00 0.00 0.00 0.00 0.00 0.00 0.00 0.00 0.00 0.00 0.00 0.00 0.00 0.00 0.00 0.01 0.01 0.01 0.01 0.01 0.01 0.01 0.01
0.10 0.10 0.05 0.03 0.01 0.02 0.02 0.02 0.02 0.02 0.02 0.02 0.02 0.01 0.00 0.00 0.00 0.00 0.01 0.02 0.01 0.00 0.00 0.00 0.00 0.00 0.00 0.00 0.00 0.00 0.00 0.00 0.00 0.00 0.00 0.01 0.01 0.01 0.01 0.01 0.01 0.00 0.01 0.01
0.08 0.08 0.07 0.05 0.03 0.03 0.03 0.02 0.02 0.02 0.03 0.03 0.03 0.02 0.01 0.00 0.00 0.00 0.01 0.02 0.02 0.01 0.00 0.00 0.00 0.00 0.00 0.00 0.00 0.00 0.01 0.01 0.00 0.01 0.01 0.02 0.02 0.01 0.01 0.01 0.01 0.01 0.01 0.00
0.05 0.06 0.07 0.05 0.05 0.06 0.02 0.01 0.01 0.01 0.02 0.03 0.03 0.03 0.02 0.02 0.01 0.00 0.00 0.01 0.01 0.01 0.01 0.00 0.00 0.00 0.00 0.00 0.00 0.01 0.02 0.02 0.03 0.03 0.03 0.02 0.02 0.01 0.01 0.01 0.01 0.01 0.00 0.00
0.03 0.05 0.08 0.07 0.05 0.03 0.01 0.01 0.01 0.02 0.03 0.03 0.04 0.04 0.03 0.02 0.01 0.01 0.01 0.01 0.01 0.01 0.01 0.01 0.00 0.00 0.00 0.00 0.00 0.00 0.01 0.01 0.02 0.03 0.03 0.03 0.02 0.01 0.01 0.01 0.01 0.00 0.00 0.00
0.05 0.05 0.07 0.06 0.05 0.03 0.01 0.01 0.01 0.01 0.03 0.03 0.02 0.03 0.03 0.02 0.02 0.02 0.01 0.01 0.00 0.00 0.00 0.00 0.00 0.00 0.00 0.00 0.00 0.00 0.01 0.01 0.01 0.02 0.02 0.02 0.01 0.01 0.01 0.01 0.00 0.00 0.00 0.00
0.11 0.12 0.09 0.06 0.05 0.03 0.02 0.01 0.01 0.03 0.04 0.02 0.01 0.02 0.03 0.03 0.03 0.02 0.01 0.00 0.00 0.00 0.01 0.01 0.01 0.01 0.01 0.01 0.01 0.01 0.01 0.01 0.02 0.01 0.01 0.01 0.00 0.00 0.00 0.00 0.00 0.00 0.00 0.00
0.08 0.10 0.09 0.08 0.08 0.06 0.03 0.03 0.04 0.05 0.03 0.03 0.02 0.02 0.03 0.04 0.03 0.03 0.02 0.02 0.02 0.01 0.01 0.02 0.02 0.02 0.02 0.01 0.01 0.01 0.01 0.01 0.01 0.01 0.01 0.00 0.00 0.00 0.00 0.00 0.00 0.00 0.00 0.00
0.05 0.06 0.07 0.07 0.07 0.06 0.04 0.05 0.05 0.04 0.03 0.02 0.02 0.02 0.02 0.03 0.03 0.03 0.03 0.03 0.02 0.02 0.02 0.01 0.01 0.01 0.01 0.01 0.01 0.01 0.01 0.01 0.01 0.01 0.01 0.01 0.01 0.00 0.00 0.00 0.00 0.00 0.00 0.00
0.03 0.03 0.04 0.04 0.04 0.04 0.04 0.03 0.03 0.03 0.02 0.02 0.02 0.01 0.01 0.01 0.01 0.02 0.02 0.02 0.02 0.02 0.01 0.01 0.01 0.01 0.01 0.01 0.01 0.01 0.00 0.00 0.01 0.01 0.01 0.01 0.01 0.00 0.00 0.00 0.00 0.00 0.00 0.00
0.03 0.03 0.03 0.03 0.03 0.03 0.03 0.03 0.03 0.02 0.02 0.02 0.01 0.01 0.01 0.01 0.01 0.01 0.01 0.01 0.01 0.01 0.01 0.00 0.01 0.01 0.01 0.01 0.01 0.01 0.01 0.01 0.01 0.01 0.01 0.01 0.01 0.00 0.00 0.00 0.00 0.00 0.01 0.01
0.04 0.04 0.03 0.03 0.03 0.03 0.03 0.03 0.02 0.02 0.02 0.02 0.02 0.02 0.02 0.02 0.02 0.02 0.01 0.01 0.01 0.01 0.01 0.01 0.01 0.01 0.01 0.01 0.01 0.01 0.01 0.01 0.01 0.01 0.01 0.01 0.00 0.00 0.00 0.00 0.00 0.00 0.01 0.01
MSLP
1010.82 1010.76 1010.64 1010.50 1010.35 1010.22 1010.08 1009.92 1009.69 1009.36 1008.91 1008.33 1007.64 1006.90 1006.14 1005.43 1004.81 1004.31 1003.92 1003.64 1003.44 1003.29 1003.16 1003.06 1002.98 1002.96 1003.02 1003.20 1003.49 1003.90 1004.42 1005.01 1005.63 1006.24 1006.82 1007.36 1007.86 1008.32 1008.78 1009.23 1009.70 1010.18 1010.65 1011.12
1010.43 1010.29 1010.12 1009.97 1009.87 1009.82 1009.79 1009.74 1009.61 1009.33 1008.88 1008.24 1007.43 1006.52 1005.56 1004.65 1003.85 1003.20 1002.72 1002.40 1002.20 1002.09 1002.03 1001.99 1001.98 1002.02 1002.11 1002.31 1002.61 1003.03 1003.56 1004.17 1004.81 1005.46 1006.08 1006.65 1007.19 1007.69 1008.19 1008.69 1009.20 1009.73 1010.27 1010.81
1009.80 1009.61 1009.43 1009.31 1009.28 1009.33 1009.44 1009.53 1009.50 1009.29 1008.84 1008.13 1007.18 1006.08 1004.90 1003.76 1002.75 1001.94 1001.35 1000.98 1000.78 1000.72 1000.73 1000.79 1000.86 1000.97 1001.12 1001.34 1001.67 1002.10 1002.64 1003.25 1003.92 1004.59 1005.24 1005.86 1006.44 1007.00 1007.54 1008.10 1008.67 1009.27 1009.89 1010.50
1008.92 1008.72 1008.56 1008.49 1008.55 1008.74 1008.99 1009.21 1009.29 1009.14 1008.67 1007.89 1006.80 1005.51 1004.11 1002.75 1001.54 1000.56 999.86 999.44 999.25 999.24 999.34 999.50 999.67 999.87 1000.08 1000.35 1000.70 1001.15 1001.69 1002.32 1002.99 1003.69 1004.38 1005.04 1005.67 1006.28 1006.89 1007.51 1008.16 1008.84 1009.54 1010.23
1007.86 1007.67 1007.53 1007.53 1007.69 1008.00 1008.37 1008.71 1008.89 1008.78 1008.30 1007.45 1006.24 1004.77 1003.18 1001.62 1000.23 999.12 998.33 997.87 997.71 997.77 997.97 998.24 998.53 998.81 999.11 999.43 999.81 1000.26 1000.81 1001.43 1002.12 1002.83 1003.55 1004.25 1004.93 1005.60 1006.28 1006.98 1007.70 1008.47 1009.25 1010.03
1006.74 1006.55 1006.44 1006.49 1006.73 1007.12 1007.59 1008.01 1008.25 1008.16 1007.68 1006.76 1005.46 1003.86 1002.14 1000.44 998.93 997.72 996.89 996.44 996.32 996.45 996.76 997.14 997.54 997.92 998.28 998.65 999.06 999.52 1000.07 1000.69 1001.38 1002.10 1002.84 1003.58 1004.32 1005.05 1005.79 1006.57 1007.37 1008.21 1009.08 1009.93
1005.70 1005.49 1005.39 1005.46 1005.72 1006.14 1006.65 1007.11 1007.36 1007.29 1006.79 1005.85 1004.49 1002.84 1001.05 999.29 997.74 996.51 995.68 995.26 995.21 995.43 995.83 996.31 996.81 997.27 997.70 998.10 998.53 999.00 999.54 1000.15 1000.84 1001.58 1002.34 1003.12 1003.90 1004.69 1005.50 1006.34 1007.21 1008.12 1009.05 1009.97
1004.91 1004.65 1004.50 1004.52 1004.75 1005.14 1005.62 1006.06 1006.30 1006.21 1005.71 1004.77 1003.42 1001.79 1000.01 998.28 996.76 995.59 994.82 994.47 994.49 994.79 995.28 995.84 996.41 996.93 997.39 997.82 998.26 998.73 999.26 999.87 1000.56 1001.31 1002.09 1002.91 1003.73 1004.58 1005.44 1006.33 1007.26 1008.23 1009.20 1010.16
1004.49 1004.13 1003.87 1003.79 1003.91 1004.20 1004.59 1004.95 1005.14 1005.03 1004.53 1003.63 1002.35 1000.80 999.12 997.50 996.10 995.02 994.36 994.09 994.19 994.57 995.11 995.72 996.33 996.87 997.36 997.80 998.23 998.70 999.23 999.84 1000.54 1001.30 1002.12 1002.97 1003.84 1004.72 1005.63 1006.57 1007.53 1008.53 1009.53 1010.51
1004.48 1003.98 1003.56 1003.32 1003.27 1003.40 1003.64 1003.88 1003.99 1003.84 1003.37 1002.53 1001.36 999.96 998.45 997.00 995.76 994.84 994.29 994.12 994.29 994.70 995.27 995.89 996.50 997.05 997.53 997.97 998.40 998.87 999.41 1000.04 1000.76 1001.55 1002.40 1003.29 1004.20 1005.12 1006.06 1007.02 1008.00 1009.01 1010.01 1010.98
1004.86 1004.17 1003.57 1003.11 1002.86 1002.79 1002.85 1002.94 1002.95 1002.77 1002.32 1001.57 1000.54 999.32 998.02 996.78 995.74 994.97 994.54 994.46 994.66 995.09 995.64 996.24 996.82 997.34 997.81 998.25 998.69 999.18 999.75 1000.42 1001.18 1002.01 1002.91 1003.83 1004.78 1005.73 1006.68 1007.65 1008.63 1009.62 1010.61 1011.56
1005.48 1004.60 1003.79 1003.13 1002.66 1002.38 1002.25 1002.19 1002.10 1001.88 1001.46 1000.80 999.93 998.91 997.82 996.79 995.93 995.32 994.99 994.96 995.17 995.57 996.08 996.63 997.17 997.66 998.12 998.56 999.04 999.57 1000.19 1000.92 1001.74 1002.63 1003.57 1004.54 1005.51 1006.47 1007.44 1008.40 1009.36 1010.32 1011.26 1012.18
1006.17 1005.12 1004.14 1003.28 1002.62 1002.14 1001.84 1001.64 1001.46 1001.20 1000.81 1000.26 999.53 998.69 997.80 996.96 996.26 995.77 995.52 995.50 995.70 996.05 996.50 996.98 997.47 997.94 998.40 998.87 999.40 1000.00 1000.70 1001.50 1002.39 1003.35 1004.34 1005.35 1006.34 1007.31 1008.26 1009.20 1010.12 1011.04 1011.94 1012.81
1006.77 1005.60 1004.48 1003.48 1002.67 1002.05 1001.61 1001.29 1001.04 1000.76 1000.41 999.93 999.33 998.64 997.92 997.23 996.66 996.25 996.04 996.02 996.17 996.46 996.84 997.27 997.72 998.18 998.66 999.19 999.79 1000.48 1001.27 1002.17 1003.14 1004.16 1005.20 1006.23 1007.24 1008.20 1009.12 1010.02 1010.90 1011.76 1012.61 1013.42
1007.16 1005.93 1004.74 1003.67 1002.77 1002.06 1001.53 1001.15 1000.85 1000.56 1000.23 999.82 999.33 998.76 998.16 997.59 997.10 996.74 996.54 996.50 996.61 996.83 997.15 997.54 997.97 998.44 998.97 999.58 1000.26 1001.06 1001.95 1002.94 1003.99 1005.06 1006.14 1007.18 1008.17 1009.11 1009.99 1010.83 1011.65 1012.46 1013.24 1014.00
1007.34 1006.10 1004.91 1003.83 1002.91 1002.17 1001.61 1001.20 1000.89 1000.61 1000.31 999.95 999.53 999.05 998.54 998.05 997.62 997.28 997.08 997.01 997.07 997.25 997.53 997.90 998.33 998.84 999.44 1000.12 1000.91 1001.80 1002.79 1003.85 1004.95 1006.06 1007.15 1008.18 1009.15 1010.04 1010.87 1011.65 1012.40 1013.14 1013.86 1014.56
1007.34 1006.16 1005.03 1004.00 1003.12 1002.41 1001.87 1001.47 1001.17 1000.91 1000.64 1000.33 999.97 999.55 999.11 998.67 998.27 997.96 997.75 997.66 997.69 997.85 998.11 998.47 998.93 999.49 1000.15 1000.92 1001.79 1002.76 1003.82 1004.93 1006.06 1007.18 1008.25 1009.25 1010.17 1011.01 1011.77 1012.48 1013.17 1013.83 1014.49 1015.12
1007.30 1006.21 1005.17 1004.23 1003.44 1002.80 1002.32 1001.96 1001.70 1001.48 1001.25 1000.99 1000.67 1000.31 999.92 999.52 999.16 998.86 998.66 998.57 998.59 998.73 998.99 999.37 999.87 1000.47 1001.19 1002.02 1002.95 1003.98 1005.07 1006.19 1007.32 1008.42 1009.45 1010.40 1011.25 1012.02 1012.71 1013.35 1013.96 1014.55 1015.14 1015.70
1007.33 1006.35 1005.42 1004.60 1003.91 1003.37 1002.96 1002.68 1002.47 1002.29 1002.11 1001.90 1001.65 1001.34 1001.00 1000.66 1000.34 1000.07 999.88 999.80 999.83 999.98 1000.25 1000.65 1001.17 1001.81 1002.56 1003.42 1004.38 1005.41 1006.50 1007.61 1008.70 1009.74 1010.71 1011.60 1012.38 1013.08 1013.70 1014.27 1014.80 1015.32 1015.83 1016.32
1007.52 1006.64 1005.83 1005.12 1004.54 1004.10 1003.78 1003.57 1003.42 1003.30 1003.18 1003.03 1002.84 1002.60 1002.33 1002.05 1001.78 1001.56 1001.42 1001.36 1001.41 1001.57 1001.86 1002.26 1002.79 1003.44 1004.20 1005.05 1006.00 1007.01 1008.06 1009.11 1010.14 1011.11 1012.01 1012.82 1013.54 1014.16 1014.72 1015.22 1015.69 1016.13 1016.56 1016.97
1007.90 1007.11 1006.40 1005.79 1005.30 1004.94 1004.70 1004.55 1004.47 1004.42 1004.36 1004.28 1004.17 1004.01 1003.82 1003.62 1003.43 1003.28 1003.18 1003.16 1003.23 1003.41 1003.70 1004.11 1004.62 1005.25 1005.98 1006.80 1007.70 1008.65 1009.63 1010.61 1011.56 1012.46 1013.29 1014.03 1014.68 1015.25 1015.75 1016.19 1016.59 1016.97 1017.32 1017.65
1008.41 1007.70 1007.06 1006.52 1006.10 1005.81 1005.62 1005.53 1005.50 1005.51 1005.53 1005.53 1005.50 1005.45 1005.36 1005.26 1005.16 1005.08 1005.05 1005.08 1005.18 1005.37 1005.65 1006.04 1006.52 1007.11 1007.78 1008.54 1009.37 1010.24 1011.14 1012.03 1012.90 1013.73 1014.48 1015.16 1015.76 1016.28 1016.74 1017.13 1017.48 1017.79 1018.07 1018.31
1008.98 1008.32 1007.73 1007.24 1006.86 1006.60 1006.45 1006.39 1006.41 1006.47 1006.56 1006.64 1006.72 1006.77 1006.80 1006.81 1006.82 1006.84 1006.88 1006.95 1007.09 1007.28 1007.56 1007.91 1008.35 1008.88 1009.48 1010.16 1010.90 1011.69 1012.50 1013.31 1014.11 1014.86 1015.56 1016.19 1016.75 1017.23 1017.65 1018.01 1018.32 1018.57 1018.78 1018.94
1009.52 1008.90 1008.34 1007.87 1007.50 1007.24 1007.10 1007.05 1007.09 1007.20 1007.35 1007.53 1007.70 1007.87 1008.03 1008.17 1008.29 1008.41 1008.53 1008.67 1008.83 1009.04 1009.30 1009.62 1010.00 1010.46 1011.00 1011.60 1012.25 1012.95 1013.68 1014.42 1015.14 1015.84 1016.49 1017.08 1017.61 1018.07 1018.46 1018.79 1019.06 1019.27 1019.42 1019.52
1009.98 1009.38 1008.84 1008.36 1007.98 1007.70 1007.54 1007.49 1007.54 1007.67 1007.88 1008.13 1008.42 1008.71 1008.99 1009.26 1009.51 1009.74 1009.95 1010.15 1010.35 1010.57 1010.82 1011.11 1011.45 1011.84 1012.31 1012.83 1013.41 1014.04 1014.69 1015.36 1016.03 1016.67 1017.28 1017.84 1018.34 1018.78 1019.15 1019.46 1019.69 1019.87 1019.97 1020.01
1010.34 1009.78 1009.24 1008.75 1008.34 1008.02 1007.81 1007.73 1007.77 1007.92 1008.17 1008.50 1008.88 1009.29 1009.70 1010.11 1010.48 1010.82 1011.13 1011.40 1011.65 1011.88 1012.13 1012.39 1012.69 1013.04 1013.45 1013.91 1014.42 1014.98 1015.58 1016.19 1016.80 1017.40 1017.96 1018.49 1018.96 1019.38 1019.72 1020.00 1020.22 1020.36 1020.43 1020.43
Thickness
5591 5595 5605 5614 5616 5621 5623 5623 5627 5630 5629 5629 5638 5648 5657 5661 5661 5664 5668 5671 5672 5673 5675 5675 5674 5675 5675 5674 5674 5673 5672 5671 5668 5666 5664 5661 5659 5657 5655 5653 5652 5650 5649 5647
5581 5592 5607 5606 5605 5605 5609 5612 5617 5618 5617 5620 5629 5640 5653 5656 5657 5661 5663 5665 5667 5667 5667 5667 5667 5668 5668 5669 5669 5667 5666 5664 5662 5660 5658 5656 5652 5649 5647 5644 5642 5641 5640 5638
5584 5593 5595 5592 5592 5594 5599 5606 5610 5609 5609 5611 5616 5637 5649 5653 5652 5652 5655 5658 5660 5661 5661 5662 5661 5662 5662 5662 5662 5661 5659 5657 5654 5652 5649 5646 5643 5640 5638 5636 5634 5632 5630 5628
5574 5581 5581 5583 5588 5590 5593 5599 5598 5597 5598 5605 5607 5622 5648 5648 5646 5647 5650 5652 5654 5654 5655 5655 5655 5655 5655 5655 5653 5652 5651 5649 5646 5644 5642 5640 5638 5635 5632 5628 5624 5622 5620 5618
5568 5571 5572 5576 5584 5584 5588 5588 5588 5588 5589 5591 5599 5600 5640 5639 5641 5646 5647 5648 5648 5648 5648 5648 5648 5648 5647 5645 5644 5643 5642 5640 5638 5636 5634 5632 5630 5626 5622 5618 5615 5612 5610 5608
5560 5563 5567 5575 5577 5577 5575 5574 5574 5575 5576 5580 5602 5599 5628 5638 5641 5643 5642 5642 5640 5641 5640 5640 5640 5639 5637 5636 5634 5633 5633 5631 5629 5627 5625 5623 5620 5616 5612 5609 5606 5603 5600 5598
5546 5552 5558 5563 5564 5563 5566 5566 5565 5565 5567 5587 5598 5597 5621 5635 5634 5635 5635 5635 5634 5633 5633 5633 5633 5631 5629 5627 5625 5624 5623 5621 5619 5617 5615 5613 5610 5607 5604 5600 5597 5594 5591 5588
5542 5549 5553 5556 5562 5563 5565 5569 5573 5576 5584 5592 5583 5594 5620 5624 5624 5625 5626 5626 5625 5626 5626 5626 5625 5624 5622 5619 5617 5616 5614 5611 5609 5607 5605 5603 5599 5596 5594 5590 5588 5585 5582 5579
5539 5545 5547 5549 5553 5557 5555 5559 5570 5569 5568 5576 5589 5596 5608 5615 5614 5615 5617 5617 5617 5618 5618 5617 5616 5615 5613 5611 5608 5606 5604 5601 5599 5597 5594 5591 5589 5585 5582 5579 5577 5574 5571 5568
5527 5530 5534 5536 5539 5542 5552 5556 5551 5553 5558 5572 5587 5592 5607 5611 5610 5609 5609 5610 5610 5609 5609 5608 5607 5605 5603 5600 5597 5595 5594 5591 5588 5586 5583 5580 5577 5574 5571 5568 5566 5563 5560 5556
5514 5518 5520 5524 5530 5538 5536 5539 5548 5553 5557 5568 5579 5594 5604 5605 5605 5603 5603 5602 5601 5601 5600 5599 5597 5595 5592 5589 5586 5584 5582 5580 5577 5574 5571 5568 5565 5562 5559 5557 5555 5551 5548 5545
5502 5509 5515 5520 5525 5530 5536 5541 5544 5545 5545 5553 5569 5582 5590 5591 5592 5592 5593 5591 5591 5590 5589 5588 5586 5584 5581 5578 5576 5573 5571 5568 5565 5562 5559 5556 5553 5550 5548 5545 5542 5539 5536 5533
5491 5496 5504 5509 5509 5511 5519 5528 5534 5535 5539 5544 5553 5573 5579 5579 5579 5580 5581 5581 5580 5578 5577 5576 5575 5572 5570 5567 5565 5562 5559 5556 5553 5550 5547 5544 5541 5538 5536 5532 5529 5526 5523 5521
5485 5486 5501 5516 5521 5515 5512 5516 5522 5525 5530 5539 5551 5566 5572 5569 5568 5569 5569 5569 5569 5567 5565 5565 5563 5562 5559 5556 5553 5550 5547 5544 5540 5538 5535 5533 5530 5527 5524 5520 5517 5514 5511 5509
5474 5478 5486 5499 5505 5507 5509 5511 5511 5516 5527 5532 5546 5552 5562 5560 5558 5557 5557 5556 5556 5555 5553 5552 5551 5550 5547 5544 5541 5538 5535 5531 5528 5526 5523 5520 5517 5514 5511 5508 5505 5502 5499 5496
5461 5468 5475 5484 5493 5496 5499 5505 5509 5512 5518 5524 5530 5538 5549 5547 5546 5545 5546 5545 5544 5543 5542 5540 5539 5538 5535 5532 5529 5526 5522 5519 5516 5514 5511 5507 5505 5502 5498 5495 5493 5490 5487 5485
5451 5457 5467 5479 5479 5483 5492 5505 5507 5510 5515 5517 5522 5534 5534 5533 5532 5534 5533 5532 5533 5532 5530 5529 5528 5526 5523 5520 5517 5514 5510 5507 5504 5501 5498 5495 5492 5489 5486 5483 5481 5478 5476 5473
5443 5450 5455 5464 5466 5472 5501 5499 5502 5505 5508 5511 5516 5520 5521 5520 5520 5521 5522 5522 5522 5520 5519 5517 5515 5513 5510 5507 5504 5501 5498 5494 5491 5488 5486 5483 5480 5477 5474 5472 5470 5467 5465 5462
5440 5443 5447 5455 5466 5481 5488 5486 5487 5491 5497 5500 5503 5506 5506 5505 5507 5510 5507 5507 5508 5507 5506 5505 5502 5500 5497 5494 5491 5489 5486 5482 5479 5476 5474 5470 5467 5465 5462 5460 5458 5456 5453 5451
5431 5434 5440 5447 5458 5470 5480 5475 5475 5482 5488 5490 5493 5494 5494 5496 5502 5503 5493 5492 5492 5492 5492 5490 5488 5487 5484 5481 5479 5476 5474 5471 5467 5464 5461 5457 5455 5453 5451 5449 5446 5444 5441 5440
5422 5425 5432 5441 5449 5463 5459 5458 5466 5474 5479 5474 5478 5480 5482 5485 5488 5482 5478 5478 5477 5477 5477 5477 5476 5474 5472 5469 5467 5465 5462 5459 5455 5451 5448 5446 5443 5441 5439 5437 5434 5432 5430 5428
5421 5424 5425 5432 5437 5445 5442 5446 5453 5456 5455 5459 5463 5465 5466 5467 5466 5464 5463 5463 5463 5463 5463 5463 5462 5461 5458 5456 5455 5453 5450 5446 5442 5439 5437 5435 5432 5430 5427 5425 5423 5421 5418 5417
5412 5417 5423 5426 5430 5429 5430 5434 5436 5440 5443 5447 5450 5451 5452 5452 5453 5452 5451 5451 5450 5450 5450 5449 5449 5447 5445 5443 5442 5440 5436 5433 5430 5428 5426 5424 5421 5418 5416 5414 5412 5410 5408 5407
5401 5402 5408 5411 5417 5419 5419 5422 5425 5427 5431 5434 5436 5437 5438 5439 5439 5439 5439 5438 5438 5438 5437 5436 5436 5434 5432 5430 5428 5426 5423 5420 5419 5417 5415 5412 5410 5408 5405 5403 5402 5400 5399 5397
5394 5393 5399 5403 5407 5408 5411 5413 5414 5415 5417 5419 5421 5423 5425 5426 5426 5426 5426 5425 5425 5424 5424 5424 5423 5421 5419 5417 5415 5412 5411 5409 5408 5406 5404 5401 5399 5397 5395 5393 5391 5389 5388 5386
5382 5386 5394 5401 5401 5401 5402 5401 5403 5404 5405 5406 5409 5410 5412 5413 5414 5413 5413 5413 5412 5411 5411 5410 5409 5408 5406 5404 5402 5400 5398 5397 5396 5395 5393 5391 5388 5386 5385 5384 5382 5379 5377 5376